TimeEDT,TemperatureF,Dew PointF,Humidity,Sea Level PressureIn,VisibilityMPH,Wind Direction,Wind SpeedMPH,Gust SpeedMPH,PrecipitationIn,Events,Conditions,WindDirDegrees,DateUTC
12:46 AM,64.4,60.8,88,30.02,2.5,Calm,Calm,-,N/A,,Clear,0,2013-08-08 04:46:00
12:53 AM,64.4,62.6,94,30.02,9.0,Calm,Calm,-,N/A,,Clear,0,2013-08-08 04:53:00
12:56 AM,64.0,62.1,93,29.98,9.0,Calm,Calm,-,N/A,,Clear,0,2013-08-08 04:56:00
1:33 AM,62.6,60.8,94,30.01,1.8,Calm,Calm,-,N/A,,Clear,0,2013-08-08 05:33:00
1:45 AM,62.6,60.8,94,30.01,3.0,Calm,Calm,-,N/A,,Clear,0,2013-08-08 05:45:00
1:56 AM,63.0,61.0,93,29.97,5.0,SE,3.5,-,N/A,,Clear,140,2013-08-08 05:56:00
2:39 AM,62.6,60.8,94,30.01,1.5,Calm,Calm,-,N/A,,Clear,0,2013-08-08 06:39:00
2:48 AM,62.6,60.8,94,30.00,0.5,ESE,5.8,-,N/A,Fog,Fog,110,2013-08-08 06:48:00
2:56 AM,63.0,61.0,93,29.97,1.2,SE,4.6,-,N/A,,Clear,130,2013-08-08 06:56:00
3:00 AM,62.6,60.8,94,30.00,4.0,SE,3.5,-,N/A,,Clear,140,2013-08-08 07:00:00
3:41 AM,64.4,62.6,94,30.00,9.0,Calm,Calm,-,N/A,,Mostly Cloudy,0,2013-08-08 07:41:00
3:56 AM,64.9,62.1,90,29.97,7.0,SE,3.5,-,N/A,,Overcast,140,2013-08-08 07:56:00
4:42 AM,64.4,60.8,88,30.00,4.0,ESE,3.5,-,N/A,,Mostly Cloudy,110,2013-08-08 08:42:00
4:49 AM,64.4,60.8,88,30.00,5.0,ESE,3.5,-,N/A,,Mostly Cloudy,120,2013-08-08 08:49:00
4:56 AM,64.0,62.1,93,29.98,7.0,SE,3.5,-,N/A,,Mostly Cloudy,130,2013-08-08 08:56:00
5:49 AM,66.2,62.6,88,30.01,10.0,Calm,Calm,-,0.05,,Overcast,0,2013-08-08 09:49:00
5:56 AM,66.0,63.0,90,29.99,10.0,Calm,Calm,-,0.05,,Overcast,0,2013-08-08 09:56:00
6:56 AM,66.0,63.0,90,29.99,8.0,Calm,Calm,-,N/A,,Overcast,0,2013-08-08 10:56:00
7:10 AM,64.4,62.6,94,30.02,2.0,Calm,Calm,-,N/A,,Overcast,0,2013-08-08 11:10:00
7:20 AM,66.2,62.6,88,30.02,4.0,South,3.5,-,N/A,,Overcast,170,2013-08-08 11:20:00
7:56 AM,66.9,64.0,90,30.00,7.0,South,4.6,-,N/A,,Overcast,190,2013-08-08 11:56:00
8:48 AM,69.8,66.2,88,30.03,8.0,South,3.5,-,N/A,,Overcast,180,2013-08-08 12:48:00
8:56 AM,70.0,66.0,87,30.00,8.0,South,3.5,-,N/A,,Overcast,180,2013-08-08 12:56:00
9:56 AM,71.1,66.0,84,30.00,10.0,Calm,Calm,-,N/A,,Overcast,0,2013-08-08 13:56:00
10:56 AM,73.0,68.0,84,30.00,10.0,Variable,3.5,-,N/A,,Overcast,0,2013-08-08 14:56:00
11:56 AM,75.0,69.1,82,30.00,5.0,Variable,3.5,-,N/A,,Haze,0,2013-08-08 15:56:00
12:23 PM,75.2,69.8,83,30.04,5.0,WSW,3.5,-,N/A,,Haze,240,2013-08-08 16:23:00
12:56 PM,78.1,70.0,76,30.00,6.0,SW,4.6,-,N/A,,Haze,230,2013-08-08 16:56:00
1:16 PM,75.2,69.8,83,30.04,5.0,Calm,Calm,-,N/A,,Haze,0,2013-08-08 17:16:00
1:44 PM,78.8,69.8,74,30.03,6.0,Calm,Calm,-,N/A,,Haze,0,2013-08-08 17:44:00
1:53 PM,78.8,69.8,74,30.03,6.0,Calm,Calm,-,N/A,,Haze,0,2013-08-08 17:53:00
1:56 PM,79.0,70.0,74,29.99,6.0,Calm,Calm,-,N/A,,Haze,0,2013-08-08 17:56:00
2:11 PM,78.8,69.8,74,30.02,5.0,SW,4.6,-,N/A,,Haze,220,2013-08-08 18:11:00
2:21 PM,80.6,71.6,74,30.02,5.0,SW,8.1,-,N/A,,Haze,220,2013-08-08 18:21:00
2:40 PM,80.6,69.8,70,30.01,5.0,SW,3.5,-,N/A,,Haze,220,2013-08-08 18:40:00
2:56 PM,80.1,69.1,69,29.97,6.0,SSW,5.8,-,N/A,,Haze,200,2013-08-08 18:56:00
3:09 PM,80.6,69.8,70,30.01,6.0,SSW,5.8,-,N/A,,Haze,210,2013-08-08 19:09:00
3:20 PM,80.6,68.0,65,30.00,6.0,SW,4.6,-,N/A,,Haze,230,2013-08-08 19:20:00
3:56 PM,80.1,69.1,69,29.95,6.0,SSW,3.5,-,N/A,,Haze,210,2013-08-08 19:56:00
4:56 PM,81.0,70.0,69,29.95,5.0,SW,4.6,-,N/A,,Haze,230,2013-08-08 20:56:00
5:40 PM,78.8,69.8,74,29.98,3.0,SSE,6.9,-,N/A,,Haze,160,2013-08-08 21:40:00
5:56 PM,75.9,68.0,76,29.95,10.0,South,8.1,-,N/A,,Mostly Cloudy,170,2013-08-08 21:56:00
6:56 PM,73.9,69.1,85,29.96,10.0,South,3.5,-,N/A,,Clear,180,2013-08-08 22:56:00
7:56 PM,72.0,69.1,91,29.95,4.0,SE,4.6,-,0.03,Rain,Light Rain,130,2013-08-08 23:56:00
8:56 PM,71.1,68.0,90,29.94,6.0,SE,6.9,-,0.00,,Clear,130,2013-08-09 00:56:00
9:37 PM,71.6,68.0,88,30.01,7.0,NNW,3.5,-,N/A,,Scattered Clouds,340,2013-08-09 01:37:00
9:46 PM,71.6,69.8,94,30.01,6.0,NNE,3.5,-,N/A,,Mostly Cloudy,30,2013-08-09 01:46:00
9:56 PM,72.0,68.0,87,29.98,5.0,Calm,Calm,-,N/A,,Overcast,0,2013-08-09 01:56:00
10:25 PM,71.6,68.0,88,30.00,3.0,ESE,3.5,-,N/A,,Overcast,120,2013-08-09 02:25:00
10:56 PM,71.1,68.0,90,29.96,4.0,Calm,Calm,-,N/A,,Mostly Cloudy,0,2013-08-09 02:56:00
11:07 PM,71.6,68.0,88,29.99,3.0,Calm,Calm,-,N/A,,Mostly Cloudy,0,2013-08-09 03:07:00
11:56 PM,71.1,68.0,90,29.93,5.0,Calm,Calm,-,N/A,,Mostly Cloudy,0,2013-08-09 03:56:00